Orbital Elements at Epoch 2459200.5 (2020-Dec-17.0) TDB
Reference: JPL 25 (heliocentric ecliptic J2000)
Element | Value | Uncertainty (1-sigma) | Units |
e | .09410618553345583 | 3.7184e-08 | |
a | 2.721247189932359 | 1.4652e-08 | au |
q | 2.465160996994189 | 1.0218e-07 | au |
i | 3.114146680859097 | 3.9654e-06 | deg |
node | 61.06816369549848 | 7.6639e-05 | deg |
peri | 316.620373285614 | 7.9501e-05 | deg |
M | 161.7497015705526 | 2.1926e-05 | deg |
tp | 2458463.798753747121 (2018-Dec-11.29875375) | 9.829e-05 | TDB |
period | 1639.647220834933 4.49 | 1.3243e-05 3.626e-08 | d yr |
n | .2195594243844005 | 1.7733e-09 | deg/d |
Q | 2.977333382870529 | 1.6031e-08 | au |
|
| | Orbit Determination Parameters
Additional Information
|